Погода в Ньюквее

Великобритания     50°24′54″N   5°04′07″W
В апреле 2022 года жителям России запретили посещать сайт meteo.paraplan.net по решению Генеральной прокуратуры. Аудитория сайта уменьшилась в 10 раз. Владельцы сайта не видят смысла в поддержке погодного сервера в таких условиях. Сайт будет закрыт в октябре.
темп.,
°C
ветер,
м/с
пор.,
м/с
влажн.,
%
обл.,
%
осадки,
мм/ч
давл.,
гПа
погр.,
м
3 октября, пн
пн301:00+12вюв2276100 0.0 102699
04:00+12юв347650 0.0 1026115
07:00+12юв46876 0.0 1025161
10:00+15юв5782100 0.0 1024488
13:00+17ююв5674100 0.0 1023510
16:00+17ю567899 0.1 1022369
19:00+15ю458798 0.1 1021199
22:00+14ююз479183 0.0 1020242
4 октября, вт
вт401:00+13ю5889100 0.0 1018272
04:00+14ю61290100 0.0 1017389
07:00+15ююз81292100 0.0 1016540
10:00+16ююз81389100 0.0 1016524
13:00+18юз101380100 0.0 1015581
16:00+17ююз91485100 0.0 1014616
19:00+16ююз91591100 0.4 1013561
22:00+17ююз91691100 0.2 1012544
5 октября, ср
ср501:00+16ююз101891100 0.2 1010551
04:00+16ююз122088100 0.0 1007679
07:00+16ююз142289100 0.3 1005998
10:00+14з131781100 0.7 10101339
13:00+15з1316740 1.0 10141382
16:00+14з1316645 0.1 10171684
19:00+14зсз1114659 0.2 10221423
22:00+14зсз1012603 0.0 10261229
6 октября, чт
чт601:00+14зсз89650 0.0 1028908
04:00+14з79660 0.0 1029869
07:00+14зюз7107438 0.0 1030781
10:00+15зюз797511 0.0 1031936
13:00+16зюз787419 0.0 1031869
16:00+16зюз787645 0.0 1029821
19:00+14юз698511 0.0 1029571
22:00+14юз698957 0.1 1028504
7 октября, пт
пт701:00+14юз69896 0.1 1027528
04:00+14юз7109016 0.1 1025555
07:00+14юз8118925 0.3 1024588
10:00+15юз898410 0.2 1024673
13:00+16зюз810785 0.2 1023803
16:00+15зюз89815 0.0 1022728
19:00+15зюз7986100 0.0 1021590
22:00+15зюз6989100 0.1 1022512